STARLINK-1330 (45577 NORAD) Tracking and Keplerian Element Data

This shows tracking and keplerian element data for the satellite.

Feedback or suggestion? Click here.




ElementValue
Catalog45577
NameSTARLINK-1330
Epoch Orbit1189
Epoch Day185.16667824
Epoch Year2020
RAAN48.7365
Inclination52.9989
Eccentricity0.0001496
Argument of Perigee31.3705
Mean Anonmoly108.2113
Mean Motion15.62750225
Decay Rate0.0001242
L11 45577U 20025AY 20185.16667824 .00012420 00000-0 14128-3 0 9991
L22 45577 52.9989 48.7365 0001496 31.3705 108.2113 15.62750225 11894

Live tracking and technical data element details for STARLINK-1330 (NORAD 45577). STARLINK-1330 can be tracked NOW for your location showing map with azimuth and elevation plus other details from your city location.

Track the satellite on the map from your city or location and see movement details for azimuth, elevation, latitude, longitude, range, height, and movement on the map or in text.







IsCatalogInMostPopularTable: catalog: 45577, numindb: 16
Update: records affected: 1



GetName: 45577 STARLINK-1330

Hit Count: updated at: Fri, 03 Jul 2020 15:58:23 GMT